Weather History for KROG - July, 2014

Change the Weather History Date:

Thursday, July 24, 2014

  Actual Average Record
Temperature  
Mean Temperature 76 °F -  
Max Temperature 86 °F 84 °F 100 °F (2011)
Min Temperature 66 °F 67 °F 55 °F (2000)
Cooling Degree Days 11    
Growing Degree Days 26 (Base 50)    
Moisture  
Dew Point 65 °F    
Average Humidity 74    
Maximum Humidity 94    
Minimum Humidity 40    
Precipitation  
Precipitation 0.00 in - - ()
Sea Level Pressure  
Sea Level Pressure 30.08 in    
Wind  
Wind Speed 6 mph (East)    
Max Wind Speed 13 mph    
Max Gust Speed 17 mph    
Visibility 10 miles    
Events      
Averages and records for this station are not official NWS values.
T = Trace of Precipitation, MM = Missing Value Source: NWS Daily Summary

Daily Weather History Graph

Daily Weather History Graph

Search for Another Location

Airport or City:

Trip Planner

Search our weather history database for the weather conditions in past years. The results will help you decide how hot, cold, wet, or windy it might be!

Date:

Astronomy

Jul. 24, 2014 Rise Set
Actual Time 6:16 AM CDT 8:28 PM CDT
Civil Twilight 5:47 AM CDT 8:57 PM CDT
Nautical Twilight 5:12 AM CDT 9:33 PM CDT
Astronomical Twilight 4:33 AM CDT 10:11 PM CDT
Moon 4:24 AM CDT (7/24) 6:45 PM CDT (7/24)
Length of Visible Light 15h 09m
Length of Day
14h 11m
Waning Crescent, 5% of the Moon is Illuminated
Jul 24
Waning Crescent
Jul 26
New
Aug 3
First Quarter
Aug 10
Full
Aug 17
Last Quarter

Hourly Weather History & Observations

Time (CDT) Temp. Heat Index Dew Point Humidity Pressure Visibility Wind Dir Wind Speed Gust Speed Precip Events Conditions
12:57 AM 69.1 °F - 66.0 °F 90% 30.06 in 10.0 mi WNW 3.5 mph - N/A   Clear
1:57 AM 68.0 °F - 64.9 °F 90% 30.05 in 10.0 mi Calm Calm - N/A   Clear
2:57 AM 66.9 °F - 64.0 °F 90% 30.05 in 10.0 mi Calm Calm - N/A   Clear
3:57 AM 66.9 °F - 64.0 °F 90% 30.04 in 10.0 mi Calm Calm - N/A   Clear
4:57 AM 66.0 °F - 63.0 °F 90% 30.05 in 10.0 mi East 3.5 mph - N/A   Clear
5:42 AM 66.2 °F - 64.4 °F 94% 30.10 in 10.0 mi East 3.5 mph - N/A   Partly Cloudy
5:51 AM 66.2 °F - 64.4 °F 94% 30.10 in 10.0 mi ENE 6.9 mph - N/A   Mostly Cloudy
5:57 AM 68.0 °F - 66.0 °F 93% 30.06 in 10.0 mi ENE 9.2 mph - N/A   Mostly Cloudy
6:40 AM 69.8 °F - 66.2 °F 88% 30.11 in 9.0 mi East 8.1 mph - N/A   Overcast
6:57 AM 70.0 °F - 66.9 °F 90% 30.07 in 8.0 mi East 8.1 mph - N/A   Overcast
7:08 AM 69.8 °F - 66.2 °F 88% 30.12 in 10.0 mi East 9.2 mph - N/A   Overcast
7:57 AM 71.1 °F - 66.9 °F 87% 30.09 in 10.0 mi East 9.2 mph - N/A   Overcast
8:10 AM 71.6 °F - 66.2 °F 83% 30.13 in 10.0 mi East 12.7 mph - N/A   Overcast
8:57 AM 73.0 °F - 66.9 °F 81% 30.10 in 10.0 mi East 12.7 mph 17.3 mph N/A   Overcast
9:57 AM 75.9 °F - 66.9 °F 74% 30.11 in 10.0 mi ESE 8.1 mph - N/A   Mostly Cloudy
10:14 AM 75.2 °F - 66.2 °F 73% 30.15 in 10.0 mi Variable 5.8 mph - N/A   Scattered Clouds
10:26 AM 77.0 °F - 66.2 °F 69% 30.15 in 10.0 mi ENE 10.4 mph - N/A   Mostly Cloudy
10:30 AM 75.2 °F - 66.2 °F 73% 30.15 in 10.0 mi ENE 9.2 mph - N/A   Scattered Clouds
10:40 AM 75.2 °F - 66.2 °F 73% 30.15 in 10.0 mi East 11.5 mph - N/A   Mostly Cloudy
10:57 AM 77.0 °F - 66.9 °F 71% 30.11 in 10.0 mi East 8.1 mph - N/A   Mostly Cloudy
11:01 AM 78.8 °F - 66.2 °F 65% 30.15 in 10.0 mi East 8.1 mph - N/A   Mostly Cloudy
11:12 AM 78.8 °F - 66.2 °F 65% 30.14 in 10.0 mi East 9.2 mph - N/A   Scattered Clouds
11:57 AM 79.0 °F - 66.9 °F 66% 30.11 in 10.0 mi East 6.9 mph - N/A   Partly Cloudy
12:57 PM 81.0 °F 83.0 °F 66.0 °F 60% 30.09 in 10.0 mi East 8.1 mph - N/A   Clear
1:57 PM 84.0 °F 85.4 °F 64.0 °F 51% 30.07 in 10.0 mi East 5.8 mph - N/A   Partly Cloudy
3:57 PM 86.0 °F 85.4 °F 59.0 °F 40% 30.04 in 10.0 mi East 8.1 mph - N/A   Clear
4:57 PM 86.0 °F 86.1 °F 61.0 °F 43% 30.02 in 10.0 mi Variable 4.6 mph - N/A   Clear
5:57 PM 86.0 °F 86.8 °F 63.0 °F 46% 30.01 in 10.0 mi SE 8.1 mph - N/A   Clear
6:57 PM 84.9 °F 85.9 °F 63.0 °F 48% 29.99 in 10.0 mi ESE 4.6 mph - N/A   Clear
7:57 PM 81.0 °F 83.3 °F 66.9 °F 62% 30.00 in 10.0 mi Calm Calm - N/A   Clear
8:57 PM 78.1 °F - 66.9 °F 68% 30.01 in 10.0 mi Calm Calm - N/A   Clear
9:57 PM 77.0 °F - 63.0 °F 62% 30.01 in 10.0 mi East 8.1 mph - N/A   Clear
10:57 PM 75.0 °F - 63.0 °F 66% 30.03 in 10.0 mi East 8.1 mph - N/A   Clear
11:57 PM 73.0 °F - 64.9 °F 76% 30.02 in 10.0 mi ESE 8.1 mph - N/A   Clear